Regional Weather Roundup
Issued by NWS Little Rock, AR

Home | Current Version | Previous Version | Text Only | Print | Product List | Glossary Off
Versions: 1 2 3 4 5 6 7 8 9 10 11 12 13 14 15 16 17 18 19 20 21 22 23 24 25 26 27 28 29 30 31 32 33 34 35 36 37 38 39 40 41 42 43 44 45 46 47 48 49 50

000
ASUS44 KLZK 171805
RWRLZK

WEATHER ROUNDUP FOR ARKANSAS
NATIONAL WEATHER SERVICE LITTLE ROCK AR
100 PM CDT FRI APR 17 2015

NOTE: "FAIR" INDICATES FEW OR NO CLOUDS BELOW 12,000 FEET WITH NO
SIGNIFICANT WEATHER AND/OR OBSTRUCTIONS TO VISIBILITY.

ARZ001-003-010-029-171900-
NORTHWEST ARKANSAS

CITY           SKY/WX    TMP DP  RH WIND       PRES   REMARKS
FAYETTEVILLE   PTSUNNY   74  60  61 VRB5      30.03F
6HR MIN TEMP:  57; 6HR MAX TEMP:  74; 6HR PCP:  0.22;

FORT SMITH     SUNNY     77  60  55 NW6       30.01F
6HR MIN TEMP:  62; 6HR MAX TEMP:  77;

HARRISON       CLOUDY    69  61  75 VRB6      30.07F
6HR MIN TEMP:  57; 6HR MAX TEMP:  70;

BENTONVILLE    MOSUNNY   70  59  68 NE6       30.06F
6HR MIN TEMP:  61; 6HR MAX TEMP:  70;

ROGERS         MOSUNNY   69  60  73 NE5       30.06F
6HR MIN TEMP:  59; 6HR MAX TEMP:  69; 6HR PCP: TRACE;

SILOAM SPGS    PTSUNNY   72  59  64 NE3       30.04F
6HR MIN TEMP:  59; 6HR MAX TEMP:  73; 6HR PCP:  0.08;

HIGHFILL       PTSUNNY   72  62  71 NE8       30.04F
6HR MIN TEMP:  60; 6HR MAX TEMP:  72; 6HR PCP: TRACE;

SPRINGDALE     PTSUNNY   72  61  68 CALM      30.06F
$$

ARZ004-005-016-171900-
NORTH CENTRAL ARKANSAS

CITY           SKY/WX    TMP DP  RH WIND       PRES   REMARKS
BATESVILLE     CLOUDY    70  64  83 E6        30.06F
6HR MIN TEMP:  57; 6HR MAX TEMP:  70;

FLIPPIN        PTSUNNY   75 N/A N/A CALM      30.03F
6HR MIN TEMP:  55; 6HR MAX TEMP:  75;

MTN HOME       MOSUNNY   76  60  57 E5        30.03F
6HR MIN TEMP:  57; 6HR MAX TEMP:  76;

$$

ARZ040-041-171900-
WEST CENTRAL ARKANSAS

CITY           SKY/WX    TMP DP  RH WIND       PRES   REMARKS
MENA           SUNNY     79  63  57 CALM      30.02F
MOUNT IDA      PTSUNNY   74  65  73 E3        30.01F
6HR MIN TEMP:  62; 6HR MAX TEMP:  74;

$$

ARZ009-017-025-026-028-171900-
NORTHEAST ARKANSAS

CITY           SKY/WX    TMP DP  RH WIND       PRES   REMARKS
CORNING          N/A     73  64  73 SE5       30.07S
JONESBORO      CLOUDY    68  65  90 S8        30.05F
6HR MIN TEMP:  61; 6HR MAX TEMP:  69;

NEWPORT        CLOUDY    70  67  90 VRB6      30.07F
6HR MIN TEMP:  59; 6HR MAX TEMP:  70;

WALNUT RIDGE   CLOUDY    70  63  78 SE3       30.06F
6HR MIN TEMP:  57; 6HR MAX TEMP:  70;

BLYTHEVILLE    CLOUDY    68  65  90 E7        30.07F
6HR MIN TEMP:  63; 6HR MAX TEMP:  70;

NW BLYTHEVILLE CLOUDY    70  63  78 E5        30.07F
$$

ARZ022-023-033-042-044-171900-
CENTRAL ARKANSAS

CITY           SKY/WX    TMP DP  RH WIND       PRES   REMARKS
LITTLE ROCK    MOSUNNY   77  64  64 E6        30.03F
6HR MIN TEMP:  63; 6HR MAX TEMP:  77;

N LITTLE ROCK  MOSUNNY   76  67  75 E6        30.03F
6HR MIN TEMP:  62; 6HR MAX TEMP:  77;

JACKSONVILLE   PTSUNNY   75  66  73 E8        30.03S
SEARCY         CLOUDY    68  65  90 E8        30.07S
6HR MIN TEMP:  60; 6HR MAX TEMP:  69;

HOT SPRINGS    MOSUNNY   77  62  59 VRB5      30.03F
6HR MIN TEMP:  62; 6HR MAX TEMP:  77;

RUSSELLVILLE   CLOUDY    73  64  73 E6        30.03F
6HR MIN TEMP:  64; 6HR MAX TEMP:  74;

CLINTON        LGT RAIN  68  66  94 CALM      30.06S
$$

ARZ036-171900-
EAST ARKANSAS

CITY           SKY/WX    TMP DP  RH WIND       PRES   REMARKS
WEST MEMPHIS   CLOUDY    68  66  93 E5        30.03F
6HR MIN TEMP:  65; 6HR MAX TEMP:  69; 6HR PCP:  0.67;

$$

ARZ050-053-066-070-073-171900-
SOUTHWEST ARKANSAS

CITY           SKY/WX    TMP DP  RH WIND       PRES   REMARKS
ARKADELPHIA    FAIR      78  67  68 CALM      30.02F
6HR MIN TEMP:  65; 6HR MAX TEMP:  78;

CAMDEN         PTSUNNY   81  61  50 CALM      30.01F
TEXARKANA      PTSUNNY   75  64  68 NE6       30.01F
6HR MIN TEMP:  63; 6HR MAX TEMP:  76;

EL DORADO      PTSUNNY   78  62  57 CALM      30.01F
6HR MIN TEMP:  67; 6HR MAX TEMP:  78;

DE QUEEN       SUNNY     79  64  60 SE5       29.98F
6HR MIN TEMP:  61; 6HR MAX TEMP:  79;

$$

ARZ056-057-069-171900-
SOUTHEAST ARKANSAS

CITY           SKY/WX    TMP DP  RH WIND       PRES   REMARKS
PINE BLUFF     LGT RAIN  72  65  78 NE6       30.04S
6HR MIN TEMP:  65; 6HR MAX TEMP:  73; 6HR PCP:  0.14;

STUTTGART      CLOUDY    73  64  73 SE6       30.04F
6HR MIN TEMP:  64; 6HR MAX TEMP:  73;

MONTICELLO     PTSUNNY   77  65  66 VRB6      30.02F
6HR MIN TEMP:  66; 6HR MAX TEMP:  77; 6HR PCP:  0.02;


$$




USA.gov is the U.S. government's official web portal to all federal, state and local government web resources and services.